This demonstration page uses our WeatherBlox Daily Observations layout. Learn more.

Left ArrowRight Arrow

Hourly Observations for May 31, 2022

Temp ( °F °C ) Dew Point ( °F °C ) Humidity (%) Winds ( mph kmh ) Pressure ( in mb ) Visibility ( mi km ) Precip ( " mm )
12:56 am 00:56 undefined 62 16.5 53 11.8 74 74 S 5 7 29.71 1006 10 16 0.00 0.00
1:56 am 01:56 Cloudy 63 17.1 53 11.4 69 69 S 5 7 29.74 1007 10 16 0.00 0.00
2:56 am 02:56 Cloudy 63 17.2 51 10.8 66 66 SSW 5 7 29.73 1007 10 16 0.00 0.00
3:56 am 03:56 Mostly Cloudy 63 17.2 50 10.1 63 63 SSW 6 9 29.76 1008 10 16 0.00 0.00
4:56 am 04:56 Mostly Cloudy 62 16.9 50 9.8 63 63 WNW 5 7 29.76 1008 10 16 0.00 0.00
5:56 am 05:56 Mostly Cloudy 62 16.6 48 9 61 61 Calm 29.79 1009 10 16 0.00 0.00
6:56 am 06:56 Mostly Cloudy 62 16.4 48 8.9 61 61 WSW 5 7 29.82 1010 10 16 0.00 0.00
7:56 am 07:56 Mostly Cloudy 62 16.8 49 9.5 62 62 W 6 9 29.84 1011 10 16 0.00 0.00
8:56 am 08:56 undefined 65 18.4 49 9.7 57 57 WNW 10 17 29.86 1011 10 16 0.00 0.00
9:56 am 09:56 Mostly Cloudy 67 19.2 51 10.5 57 57 W 9 15 29.88 1012 10 16 0.00 0.00
10:56 am 10:56 Mostly Cloudy 69 20.3 52 11.2 56 56 WNW 10 17 29.90 1012 10 16 0.00 0.00
11:56 am 11:56 Mostly Cloudy 71 21.5 53 11.8 54 54 WNW 8 13 29.92 1013 10 16 0.00 0.00
12:56 pm 12:56 Mostly Cloudy 73 23 53 11.7 49 49 WNW 5 7 29.93 1014 10 16 0.00 0.00
1:56 pm 13:56 Mostly Sunny 76 24.4 54 12.3 47 47 W 5 7 29.93 1013 9 14 0.00 0.00
2:56 pm 14:56 Sunny 77 25 53 11.9 44 44 NW 9 15 29.93 1013 10 16 0.00 0.00
3:56 pm 15:56 Sunny 78 25.4 53 11.9 43 43 NW 12 19 29.93 1013 8 13 0.00 0.00
4:35 pm 16:35 Hazy 79 26 52 11 39 39 NNW 15 24 29.93 1013 6 10 0.00 0.00
4:42 pm 16:42 Hazy 79 26 54 12 42 42 WNW 13 20 29.93 1014 4 6 0.00 0.00
4:56 pm 16:56 Sunny 78 25.6 52 11 40 40 WNW 12 19 29.93 1014 9 14 0.00 0.00
5:56 pm 17:56 Sunny 78 25.7 50 9.9 37 37 WNW 14 22 29.93 1014 10 16 0.00 0.00
6:56 pm 18:56 Sunny 77 25.2 50 10.2 39 39 NNW 12 19 29.93 1014 10 16 0.00 0.00
7:56 pm 19:56 Mostly Cloudy 74 23.5 52 11.2 46 46 NNW 12 19 29.97 1015 9 14 0.00 0.00
8:56 pm 20:56 Mostly Cloudy 72 22.2 51 10.7 48 48 NNW 12 19 30.00 1016 10 16 0.00 0.00
9:56 pm 21:56 Mostly Cloudy 69 20.6 52 11 54 54 N 12 19 30.04 1017 10 16 0.00 0.00
10:56 pm 22:56 Mostly Clear 67 19.5 51 10.5 56 56 N 12 19 30.06 1018 10 16 0.00 0.00
11:56 pm 23:56 Clear 64 17.8 49 9.7 59 59 N 14 22 30.06 1018 10 16 0.00 0.00

Powered by AerisWeather